User: anonymous   Login
Location: ??????????
(48.4699°N, 37.9573°E)
Time: 07:20:15
(UTC+00:00)
Language:

Cosmos 2227 - Orbit

View from above orbital plane
View from above orbital plane
View from above satellite
View from above satellite

Ground track
Ground track

The orbit data is extracted from the following two-line orbital elements,

1 22284U 92093A   21108.57614365  .00000275  00000-0  17160-3 0  9992
2 22284  70.9796 177.5891 0019837 218.6903 141.2798 14.13339455460373
Epoch (UTC): 18 April 2021 13:49:38
Eccentricity: 0.0019837
inclination: 70.9796°
perigee height: 833 km
apogee height: 862 km
right ascension of ascending node: 177.5891°
argument of perigee: 218.6903°
revolutions per day: 14.13339455
mean anomaly at epoch: 141.2798°
orbit number at epoch: 46037

The dashed part of the orbit path shows where the satellite is in the earth's shadow,  

DLR